Location: North Bay Shore
(40.7362°N, 73.2626°W)
Time: 09:59:48
(UTC+00:00)

Cosmos 1076 Rocket - Pass Details

Date: 29 October 2020
Orbit: 589 x 613 km, 82.5° (Epoch: 23 November)

Event Time Altitude Azimuth Distance (km) Brightness Sun altitude
Rises 23:18:46 0° 356° (N) 2,831 7.0 -16.9°
Reaches altitude 10° 23:21:00 10° 0° (N) 1,926 6.0 -17.3°
Maximum altitude 23:25:12 58° 80° (E) 696 3.4 -18.1°
Drops below altitude 10° 23:29:23 10° 160° (SSE) 1,920 5.9 -18.9°
Sets 23:31:36 0° 164° (SSE) 2,821 6.8 -19.3°
